Theta_e
313 314 314 312 311 315 321 324 325 326 328 326 322 322 326 324 317 314 315 315 316 317 318 318 317 317 318 319 320 321 322 322 322 320 321 323 324 324 325 326 326 326 326 326 327 324 319 320 324 326 325 320 319 320 317 315 317 318 323 327 326 328 327 325 325 318 320 323 316 315 319 320 319 319 319 320 320 323 327 325 327 329 328 326 324 322 327 332
312 313 314 314 312 313 318 323 325 325 326 327 323 320 324 325 319 315 315 314 315 316 316 316 317 317 318 319 320 321 322 321 321 320 322 323 322 323 324 325 325 325 326 326 327 325 321 318 319 324 324 319 316 318 317 316 315 320 325 324 327 333 326 320 320 315 316 319 315 316 318 319 319 319 319 321 323 323 326 326 326 328 327 326 325 325 328 332
312 312 313 314 313 312 314 317 322 324 324 325 324 321 322 323 322 318 315 316 315 316 317 317 317 318 319 320 320 321 321 321 321 322 323 323 323 323 324 324 323 324 325 326 326 326 325 321 318 320 321 318 317 316 316 316 316 318 318 322 330 328 319 316 316 314 315 316 315 315 317 318 318 320 319 321 323 322 324 327 327 327 326 325 327 326 328 332
311 312 313 313 313 311 311 312 316 320 321 323 325 323 321 322 323 321 317 317 317 316 317 317 318 319 319 319 320 321 321 321 322 323 325 324 323 323 323 323 323 324 324 325 326 326 327 323 318 316 317 316 315 316 315 314 314 315 316 322 325 317 316 318 315 314 314 315 315 315 316 317 318 319 319 320 323 323 321 322 324 324 323 325 328 326 327 331
310 311 312 313 312 310 310 310 311 313 316 319 325 325 321 321 323 323 319 318 318 317 318 317 318 319 319 320 320 321 321 323 324 324 324 323 324 323 323 324 324 325 324 325 326 326 327 324 319 315 316 316 315 316 315 313 313 313 316 317 317 313 316 317 314 315 314 315 316 315 317 318 317 318 318 320 323 323 320 320 320 320 320 322 326 326 325 329
310 310 311 312 313 311 309 309 309 310 312 314 322 325 322 321 324 324 320 319 319 318 318 318 318 319 319 320 320 320 321 325 324 323 324 323 323 322 323 324 323 325 325 325 325 326 326 322 319 318 317 318 318 317 315 314 312 316 320 314 312 312 313 316 315 315 314 315 315 315 317 317 316 317 317 319 321 320 320 320 319 319 319 319 323 324 324 327
309 310 310 311 313 312 310 309 308 309 310 311 317 323 324 323 324 326 322 319 320 319 319 318 319 319 319 320 320 321 322 324 322 322 325 324 324 322 322 323 323 324 325 326 325 326 326 321 320 318 317 319 318 317 316 314 311 320 328 315 311 312 311 314 315 314 315 315 315 316 317 316 316 317 317 318 320 319 319 320 319 319 319 320 322 322 322 323
309 309 310 311 312 313 312 309 308 309 309 309 313 317 322 325 325 327 323 321 321 320 320 319 319 319 319 320 322 323 323 323 321 321 324 324 323 322 321 322 322 324 324 325 326 326 326 323 322 320 319 319 319 318 316 314 312 320 327 315 310 312 311 313 313 314 315 314 316 316 316 316 316 316 315 317 319 318 319 319 320 320 319 320 322 322 322 322
308 309 309 310 311 312 313 311 309 308 308 309 311 313 317 324 326 327 326 324 323 321 320 320 320 319 320 320 322 324 324 323 321 321 324 324 322 322 321 322 322 324 324 325 325 326 325 324 323 322 321 320 319 318 315 315 316 316 317 312 311 312 312 312 312 313 314 314 316 316 316 315 315 315 316 318 318 318 318 318 320 320 320 321 322 321 321 322
308 309 309 310 310 311 312 312 310 308 309 309 311 312 315 323 326 327 327 326 325 322 320 321 321 320 321 322 323 324 325 324 321 321 324 323 323 323 322 323 323 324 324 325 325 326 326 325 324 322 322 320 318 317 315 317 317 312 311 311 311 312 312 312 312 313 314 314 315 317 316 314 314 314 317 318 317 318 317 318 319 319 320 321 321 322 321 321
308 308 309 309 310 311 311 312 311 308 309 309 311 312 314 322 326 326 326 326 326 324 321 322 322 322 323 323 323 324 325 324 322 320 322 322 324 323 323 323 324 324 324 325 325 326 326 325 324 322 321 319 318 316 315 317 316 312 311 314 313 312 312 312 312 313 314 314 314 315 314 313 314 314 316 317 317 318 316 317 318 319 320 320 321 321 322 322
307 307 308 309 309 310 311 312 311 308 308 309 310 312 313 319 325 325 326 326 325 324 322 322 323 322 323 323 323 323 324 325 322 321 321 321 322 323 324 324 324 324 325 325 325 326 326 324 323 322 320 318 318 317 316 316 314 312 313 318 317 312 313 313 313 313 313 314 314 314 315 316 316 315 316 316 316 317 316 317 317 318 320 321 321 322 322 322
307 307 307 308 309 310 310 311 311 309 308 309 310 311 311 316 325 326 326 327 325 325 322 322 323 323 323 323 323 322 323 324 323 323 322 322 321 322 324 324 324 325 325 326 326 326 325 323 322 321 319 317 316 317 317 315 314 314 314 318 319 314 315 313 311 313 313 313 314 313 318 321 319 315 315 315 315 316 317 317 317 318 319 321 322 322 322 322
306 307 307 308 308 308 310 311 311 310 309 309 309 311 310 314 324 327 326 326 325 325 323 321 323 324 323 323 322 322 322 323 323 323 323 322 322 322 323 324 325 325 325 326 325 325 322 320 320 318 317 317 316 315 316 314 314 315 313 316 318 316 320 319 311 312 313 313 313 314 317 321 319 315 314 315 315 316 318 318 317 318 319 320 322 322 322 321
306 306 306 307 307 307 309 310 311 311 311 309 308 310 309 313 321 325 325 326 325 324 324 322 322 323 322 322 321 322 321 321 323 323 323 323 322 322 323 323 324 323 324 323 322 321 319 316 317 316 314 315 315 314 315 314 312 312 313 318 318 314 321 323 312 311 314 313 312 313 316 318 316 314 313 314 314 316 317 316 317 318 318 319 321 321 321 320
306 306 306 306 306 306 307 309 310 312 313 311 308 309 309 310 318 324 325 324 325 325 323 322 322 322 322 322 321 321 321 321 322 323 323 323 323 322 323 323 321 319 318 318 319 318 316 315 315 315 313 312 314 314 315 315 313 312 313 317 319 315 315 317 313 311 312 313 312 313 316 318 316 312 312 313 312 316 318 316 316 316 317 318 319 320 319 319
306 306 306 305 306 306 306 308 309 311 313 313 311 310 309 310 314 321 326 324 325 325 324 322 321 321 322 320 320 321 321 321 322 322 322 323 323 321 323 323 316 314 315 315 317 316 314 314 313 313 313 312 313 313 315 316 316 315 312 314 317 316 313 314 315 312 310 312 314 313 315 318 316 311 311 312 311 315 319 317 317 317 316 317 318 319 319 319
306 306 306 306 306 305 305 307 308 310 312 313 313 310 311 312 313 320 326 325 324 324 323 322 320 323 322 319 319 321 321 322 322 322 321 322 322 321 324 322 313 312 314 313 314 314 313 313 312 314 313 313 313 313 318 318 316 315 313 313 315 314 313 314 315 313 311 313 314 314 314 315 315 312 311 312 311 314 318 316 317 317 317 318 318 318 318 318
306 306 306 307 306 306 306 306 307 309 311 313 312 311 312 312 315 323 326 324 323 321 321 321 320 324 324 320 320 321 321 322 323 322 321 321 321 321 322 318 313 313 313 312 313 312 312 312 313 315 313 313 313 314 318 317 315 315 314 315 315 314 313 313 315 313 311 314 314 314 315 314 315 314 311 311 311 312 314 314 314 315 317 319 319 318 317 317
306 306 306 307 307 306 306 306 306 307 310 312 312 313 314 311 315 323 323 322 323 321 321 321 320 322 321 320 319 320 321 322 322 321 320 321 320 319 317 313 313 313 312 313 313 311 312 314 314 315 314 314 313 314 316 315 314 314 314 314 315 315 313 313 315 313 310 313 315 313 314 314 314 314 311 310 311 311 311 312 312 313 315 317 318 317 317 316
306 306 306 307 307 307 307 306 307 307 310 312 313 315 314 311 313 319 320 321 321 320 321 321 321 320 319 319 319 319 320 320 321 321 319 319 320 318 314 312 311 311 311 311 311 310 312 314 315 315 315 314 314 314 314 314 313 312 313 313 313 314 314 312 314 313 310 312 316 314 313 313 313 313 311 308 309 310 311 311 312 313 313 314 316 316 316 315
305 306 306 306 306 307 307 307 307 308 310 311 313 316 315 311 313 318 321 321 319 319 320 321 321 320 319 319 318 319 320 318 318 318 318 318 319 317 313 311 310 310 310 310 310 311 312 314 315 312 312 313 312 312 313 313 313 312 312 312 313 314 314 313 314 314 311 311 316 316 313 314 313 313 310 308 310 311 312 313 313 314 313 313 315 315 315 315
304 305 305 306 306 306 307 307 307 309 310 311 312 315 314 312 314 319 321 321 319 318 319 321 321 319 318 318 318 320 320 318 316 316 318 318 318 318 312 309 310 310 310 310 312 313 313 315 312 308 308 312 312 310 311 313 313 313 313 312 313 314 315 316 314 313 311 311 314 315 315 315 313 313 312 309 310 312 313 314 313 313 314 314 315 315 315 314
304 305 305 306 306 306 307 308 308 309 310 311 311 312 313 312 313 317 319 319 318 316 318 321 320 317 317 317 318 320 320 319 317 316 317 317 317 316 312 309 310 310 310 311 312 312 314 313 309 307 309 313 313 310 311 312 313 314 313 313 313 313 314 315 314 313 312 311 312 313 315 318 316 315 315 311 309 310 311 312 312 312 313 314 314 314 315 314
304 304 305 305 306 307 308 309 309 308 309 311 311 312 313 312 313 316 318 319 318 316 317 320 318 316 317 318 319 319 319 316 316 316 316 316 316 313 311 310 310 310 310 311 311 312 313 310 308 309 310 311 312 311 311 312 313 315 314 313 312 312 312 313 315 313 312 314 314 312 316 326 327 320 318 314 310 310 310 309 310 312 312 312 313 314 314 315
303 303 303 305 307 307 308 310 308 308 310 311 311 312 315 314 314 318 318 320 319 316 318 320 318 317 317 318 318 318 319 316 314 316 315 315 316 313 312 310 309 310 309 309 310 312 311 307 308 311 310 311 312 311 311 312 313 314 315 314 311 311 312 315 316 314 315 318 314 311 316 326 326 320 319 315 313 313 311 308 308 311 312 312 313 315 315 315
302 302 303 306 307 308 309 310 309 309 311 312 310 312 316 315 315 318 318 319 320 317 319 320 318 318 316 316 317 318 322 318 313 314 314 315 315 314 314 311 310 309 307 308 312 311 310 307 309 311 310 311 312 310 311 312 313 315 316 315 313 312 313 317 317 316 319 318 315 314 316 318 317 316 318 313 313 317 314 312 309 309 312 313 313 315 315 315
302 303 304 305 307 308 309 310 310 310 310 311 310 312 316 314 314 317 317 320 321 318 319 318 316 316 314 315 317 317 319 317 313 313 314 314 313 312 312 311 310 310 306 309 314 310 308 309 310 310 310 310 310 312 313 312 313 316 318 317 316 315 316 317 317 317 316 314 317 319 313 313 318 322 321 313 312 316 317 317 314 309 312 313 313 315 315 315
301 303 304 305 306 308 309 310 310 310 309 311 311 312 316 314 313 317 318 320 320 317 319 318 315 316 314 314 317 315 314 315 314 312 311 311 311 310 311 310 308 309 307 309 314 312 307 309 309 309 310 310 311 313 313 312 312 313 316 319 319 320 320 317 318 318 314 312 317 321 314 312 320 327 323 315 313 316 318 318 313 309 312 314 313 314 314 314
302 304 304 305 307 307 308 309 310 309 309 311 312 314 317 315 314 318 320 319 318 317 318 316 315 316 314 314 316 313 312 314 312 310 310 310 310 309 309 309 308 309 309 309 315 314 308 307 308 308 310 309 310 311 308 310 311 310 316 319 318 322 323 321 323 320 314 314 316 320 317 312 316 323 320 315 316 318 318 317 313 310 311 313 312 313 313 313
303 304 305 306 307 307 309 310 309 310 310 312 314 316 317 315 315 320 320 316 316 317 316 315 314 315 314 315 316 313 312 312 309 310 310 309 310 308 308 310 309 311 311 310 314 312 308 309 308 308 308 307 310 311 308 309 310 312 321 320 316 321 321 320 325 319 313 316 316 316 315 311 313 319 317 316 317 316 314 315 316 311 310 313 313 313 313 313
304 305 306 307 307 308 309 310 309 311 311 312 316 317 316 315 316 319 318 315 317 317 316 315 314 314 314 315 315 313 313 311 309 310 310 310 310 308 309 311 309 312 311 310 313 312 311 313 309 307 308 309 311 313 312 311 312 315 320 318 315 319 317 316 320 317 316 317 313 312 313 311 312 315 315 316 314 313 310 310 312 310 309 313 313 313 313 313
305 307 309 309 308 308 310 310 309 311 312 313 316 316 316 317 317 318 316 315 317 318 315 314 313 314 315 316 315 313 313 311 310 311 310 310 310 308 311 312 310 315 314 311 313 312 314 315 311 310 310 309 311 312 313 315 314 314 316 316 317 318 316 315 316 315 317 317 312 310 311 312 314 315 316 317 312 312 310 307 310 309 310 312 312 313 314 313
308 310 312 311 309 309 310 309 309 311 313 314 317 316 316 319 317 316 314 314 316 317 315 314 314 314 316 316 315 314 315 314 310 311 310 311 311 309 311 312 311 316 315 312 313 313 315 315 313 312 311 310 311 310 315 318 315 314 317 318 320 322 320 317 317 318 319 318 313 309 312 318 319 316 315 312 309 310 311 310 311 310 311 312 312 313 314 314
312 313 313 311 310 310 309 310 310 312 314 315 317 317 318 319 316 315 314 313 315 316 315 314 314 315 316 316 315 314 314 314 311 311 311 311 311 310 310 310 310 314 314 312 313 313 315 314 311 310 308 310 312 310 313 316 314 315 318 318 318 322 323 318 317 320 321 318 314 311 314 320 319 315 312 308 307 308 308 310 312 311 312 312 312 314 313 314
315 315 313 311 311 311 310 310 311 313 315 316 317 317 318 317 314 314 314 313 315 315 315 315 315 316 316 315 315 314 313 313 312 312 312 311 311 311 311 310 309 311 312 312 314 314 315 314 311 309 307 308 310 309 310 312 314 314 313 316 317 316 321 320 313 312 314 315 316 313 314 319 316 314 315 314 313 312 309 308 309 310 312 311 312 314 313 314
316 316 314 312 312 311 310 311 312 314 316 316 318 318 317 315 313 313 313 313 315 314 315 317 316 316 316 314 314 314 313 313 313 313 313 313 313 312 312 312 309 309 311 312 313 314 314 313 311 312 311 308 306 308 308 307 312 316 314 315 315 312 318 323 317 313 311 313 318 316 313 317 316 315 319 318 315 315 314 311 308 308 310 310 312 314 313 314
316 314 314 313 312 311 311 311 313 315 316 316 318 317 315 314 313 313 313 313 315 315 316 317 317 317 316 315 314 313 314 315 313 314 314 313 315 314 312 312 310 308 310 310 311 313 315 314 311 310 312 309 307 310 311 307 308 314 315 312 314 315 316 317 316 316 312 312 319 319 313 315 316 317 321 317 316 319 316 316 315 310 310 311 312 313 313 313
314 312 313 314 313 312 312 312 314 316 316 317 317 315 314 314 313 313 313 313 314 315 316 317 317 317 316 316 315 313 315 316 314 315 315 314 316 314 312 313 311 308 307 309 313 313 314 317 314 310 309 310 310 311 314 312 308 309 310 309 312 317 317 316 315 316 315 314 318 318 314 315 317 319 321 317 317 319 315 317 318 311 310 312 311 312 312 312
312 312 313 314 313 312 313 314 315 316 316 316 315 314 314 313 312 312 312 314 315 315 316 317 316 317 316 316 315 313 315 316 314 316 316 315 315 313 312 313 311 308 307 310 314 313 312 316 316 311 308 310 313 314 314 315 311 310 313 312 311 311 314 317 315 316 319 319 319 316 314 320 321 317 317 316 316 317 315 317 315 309 310 312 311 311 312 312
312 313 314 314 313 313 314 315 316 316 314 314 314 313 314 313 312 312 312 313 315 314 315 316 316 317 316 316 314 313 315 315 314 316 316 315 314 313 312 311 309 308 309 311 314 314 313 315 315 313 311 312 315 314 312 313 313 313 315 314 313 313 315 315 312 314 315 316 320 317 312 320 324 315 313 315 316 314 312 311 310 310 311 311 311 311 311 311
312 314 314 314 314 314 315 316 316 314 312 313 313 312 313 312 312 312 312 313 314 314 313 315 316 316 315 316 314 314 315 315 315 316 315 314 314 313 312 310 308 308 310 313 312 312 314 316 315 314 313 315 313 308 305 308 311 313 313 313 314 313 315 315 316 318 315 312 316 316 312 315 320 317 313 312 311 309 306 306 308 310 311 310 311 311 311 311
313 314 314 314 314 315 316 316 315 312 311 312 312 312 312 312 312 312 312 313 314 314 314 314 315 315 315 315 314 314 315 314 315 315 313 312 312 311 309 308 308 308 311 313 311 310 314 317 317 315 314 316 314 309 305 307 310 312 313 313 313 313 317 323 325 322 318 314 313 313 311 312 317 317 309 304 305 305 306 307 307 309 311 311 310 310 311 312
313 314 314 314 314 315 315 315 314 311 310 311 311 311 311 311 312 312 313 313 313 314 314 314 315 315 315 314 313 314 315 315 315 313 313 313 310 308 307 307 309 310 310 312 311 312 315 316 315 315 315 316 317 315 312 309 310 314 314 313 315 316 317 319 317 314 314 318 317 313 312 314 321 319 309 305 307 307 307 308 308 309 312 311 310 310 311 311
313 314 314 314 314 315 314 313 313 312 311 311 311 311 311 311 312 312 313 313 313 314 314 314 315 314 314 314 314 314 315 316 314 312 312 314 311 307 306 308 310 310 310 311 310 314 321 319 314 315 315 314 314 314 313 312 312 313 314 314 315 316 314 313 314 313 312 317 317 313 312 314 318 318 313 312 313 311 309 308 308 309 310 311 310 309 310 311
314 314 314 313 313 314 312 311 311 312 312 311 311 311 311 312 312 312 313 313 312 313 314 315 315 314 313 314 314 314 315 315 314 312 311 313 313 308 306 308 310 309 310 311 309 314 322 318 313 314 313 311 314 316 315 314 313 312 314 315 314 313 312 313 317 315 313 315 314 313 313 312 313 314 315 316 317 317 313 307 307 309 310 310 310 309 311 311
314 314 314 313 313 314 313 311 312 313 313 313 312 311 311 312 312 312 313 313 312 312 314 314 314 314 313 314 314 314 314 313 313 312 311 313 315 311 306 308 309 309 310 310 309 316 321 315 312 314 312 313 322 322 315 314 314 313 313 314 313 312 311 313 315 313 314 315 312 314 315 313 314 317 319 319 319 318 311 305 307 310 309 309 309 309 311 311
313 313 313 314 314 314 313 311 312 313 314 314 313 311 311 312 312 313 313 312 311 312 313 313 313 314 313 314 314 314 314 313 312 312 312 313 314 311 309 309 308 309 311 310 308 313 318 315 312 313 312 315 322 322 316 314 314 313 313 313 313 313 312 313 313 312 314 314 311 315 317 314 313 318 320 318 314 312 309 308 309 310 309 310 309 309 310 310
311 312 311 311 313 314 313 311 312 313 314 315 313 311 311 312 312 313 313 312 312 312 313 314 314 314 313 314 314 314 313 313 313 312 311 312 312 310 310 310 309 309 310 311 311 310 313 316 314 312 312 313 316 317 315 314 313 313 314 313 312 312 312 311 311 312 313 312 312 317 319 315 313 316 318 314 307 306 308 310 311 311 311 311 310 310 311 310
311 310 309 309 312 314 313 312 312 313 314 314 312 311 311 311 313 313 312 312 313 313 313 314 314 313 313 314 314 314 313 314 314 313 311 312 312 310 311 312 311 309 309 311 310 308 311 316 313 310 312 312 312 312 312 313 314 314 314 312 311 311 311 311 311 311 312 312 311 313 315 313 311 311 311 309 307 308 309 310 310 312 311 312 311 311 311 311
311 310 309 309 311 313 313 313 313 313 313 313 312 311 311 311 312 313 312 311 312 313 313 314 314 313 313 314 314 314 314 314 314 312 311 311 310 310 311 311 310 310 311 311 311 312 315 314 310 311 313 312 311 313 312 311 311 313 314 312 311 310 310 310 311 311 311 311 311 313 312 312 311 309 306 307 308 308 309 309 310 311 311 312 311 311 312 311
310 310 309 310 311 312 313 314 314 313 313 313 312 311 311 311 312 312 312 310 311 312 312 313 314 313 312 314 314 314 312 312 311 310 310 310 309 309 310 309 308 311 312 312 312 315 318 314 311 313 314 312 311 311 313 313 312 312 313 312 310 309 310 310 310 311 311 310 311 312 310 311 313 310 308 310 310 308 308 310 310 311 311 312 312 312 312 312
Wind_Speed
23 22 24 31 35 34 32 33 34 33 35 40 38 35 35 37 40 39 39 38 36 36 35 35 34 31 31 28 26 25 23 22 22 23 24 22 19 17 19 20 16 14 11 9 9 5 4 5 8 12 12 6 5 11 7 3 1 1 2 3 2 4 4 5 6 6 2 3 7 13 20 15 7 12 14 9 10 14 17 15 13 19 16 11 9 9 26 31
24 22 22 27 32 34 33 32 34 33 32 38 41 39 38 36 39 40 39 39 39 37 36 36 35 33 31 29 27 25 23 22 21 23 24 20 18 19 21 21 17 15 13 10 9 6 4 4 7 11 14 9 4 8 7 3 1 1 2 2 4 5 4 4 5 6 3 3 5 13 21 18 14 18 17 8 9 13 12 10 12 16 15 13 11 17 30 31
24 23 22 26 32 35 35 34 33 32 30 34 42 41 39 37 38 41 40 39 39 37 36 35 33 33 31 29 28 25 24 22 20 24 23 20 19 20 22 21 17 15 13 10 10 8 5 4 7 11 13 11 6 6 4 2 2 1 2 1 5 6 5 4 5 5 5 6 5 11 18 16 17 21 18 10 9 10 10 11 14 15 16 16 15 23 32 31
24 23 23 24 31 37 39 37 33 34 30 29 40 42 38 38 38 42 43 40 39 37 36 35 33 32 30 29 27 25 23 16 19 26 23 21 20 20 22 22 18 16 14 12 10 9 7 5 9 13 12 9 6 5 2 4 3 2 2 2 4 2 3 5 4 4 5 6 7 9 10 11 18 21 17 13 9 5 14 21 21 20 20 19 20 27 32 33
25 23 24 23 27 35 40 40 35 38 34 27 37 44 39 38 38 42 45 42 39 38 36 36 34 32 31 30 27 26 21 7 12 25 23 22 22 19 21 21 20 18 16 15 12 9 8 8 12 15 9 6 7 5 1 3 4 2 1 5 9 3 4 8 5 5 5 4 7 9 8 12 18 17 18 19 11 10 21 28 25 22 21 20 21 28 32 34
25 24 24 23 24 30 39 42 38 39 38 30 33 41 40 39 39 44 47 44 41 40 38 36 35 33 31 30 27 27 23 5 3 18 24 24 22 21 20 20 19 18 18 17 13 11 11 12 14 15 8 4 5 5 3 1 4 1 1 6 14 10 7 13 11 8 6 3 10 12 10 14 17 11 18 24 19 16 21 26 24 21 20 19 21 27 32 34
25 24 23 23 23 27 35 42 42 41 41 37 31 33 40 41 40 46 49 46 43 41 38 36 35 34 32 30 27 26 25 12 2 9 23 26 23 22 20 18 18 17 19 18 16 15 14 15 14 14 9 4 5 6 4 1 4 4 1 5 15 17 14 18 16 12 9 6 11 12 8 13 16 8 12 24 26 16 13 19 23 20 19 20 22 26 29 31
24 24 23 24 24 24 30 39 43 43 42 41 36 30 36 43 42 45 49 46 44 41 37 37 35 35 34 31 28 23 24 20 3 4 21 27 24 24 22 20 19 19 20 19 19 18 16 17 16 13 8 4 7 7 5 2 4 4 1 6 15 20 21 23 19 13 8 6 9 10 7 10 12 4 7 22 26 15 10 15 20 21 21 22 24 26 28 30
25 24 23 24 24 24 27 34 40 42 42 41 40 32 32 43 44 43 46 44 43 41 38 37 35 36 33 32 31 19 22 25 9 5 19 27 26 25 25 24 23 22 21 19 17 18 18 19 20 16 9 7 7 5 5 4 0 2 1 7 14 20 23 21 15 9 5 4 10 10 4 5 8 2 7 20 23 16 11 13 19 21 22 24 25 26 27 29
25 24 23 23 25 25 26 31 36 39 41 40 39 35 32 41 47 43 44 41 40 40 38 37 36 36 33 33 28 12 20 28 13 10 16 23 27 26 26 26 25 25 22 21 19 20 22 20 21 18 9 7 7 4 5 4 3 3 10 12 11 17 21 14 10 8 3 3 9 11 3 3 6 2 7 14 18 19 14 14 20 22 23 25 26 27 27 28
25 25 24 22 24 25 25 29 33 37 41 40 40 39 35 39 48 45 43 41 39 40 40 40 38 37 35 33 26 12 20 29 18 15 14 15 23 26 28 26 26 27 23 22 20 20 20 16 18 16 7 6 7 4 3 4 5 6 15 12 11 17 19 12 9 8 3 1 6 8 3 1 1 2 9 10 15 20 18 18 22 24 25 25 26 27 28 28
25 26 25 23 24 25 26 27 33 37 42 42 41 44 40 36 45 46 45 44 41 41 41 40 39 37 35 31 28 21 20 27 24 21 16 11 14 20 26 26 24 24 21 21 20 19 19 15 17 15 7 9 10 3 5 8 5 7 11 6 10 14 13 10 6 7 4 1 4 6 1 3 2 8 12 9 14 20 19 20 22 25 27 26 27 28 28 29
25 26 26 25 24 25 26 27 32 36 41 44 44 47 43 35 41 47 46 46 44 42 42 42 40 39 34 25 27 25 18 22 27 25 21 13 9 13 21 24 22 20 18 18 18 19 19 16 17 16 11 13 10 3 5 9 4 5 6 3 5 7 7 6 3 5 4 2 4 7 3 5 8 15 13 8 15 20 20 21 23 25 27 29 29 30 30 29
25 26 26 26 26 27 27 27 32 35 38 44 46 48 45 37 40 47 46 47 46 42 43 44 41 38 31 22 24 27 18 17 22 24 25 20 13 13 20 24 22 20 18 16 17 19 20 18 18 16 11 13 12 5 5 6 3 2 2 2 2 1 5 5 1 4 4 4 5 7 3 6 9 14 12 12 17 21 21 22 24 26 28 30 31 32 32 31
26 27 27 27 27 28 29 28 31 34 37 44 47 45 45 40 41 48 47 46 47 43 43 43 40 35 24 17 20 26 23 17 18 20 23 25 21 19 22 26 24 22 22 19 19 19 19 20 19 16 10 12 14 8 4 3 2 1 2 1 1 2 5 6 1 7 5 3 5 6 2 7 8 10 11 16 19 20 23 23 24 26 27 30 32 33 33 32
26 27 28 28 28 29 30 30 31 33 35 42 46 43 46 43 38 48 49 46 46 43 44 43 42 36 17 12 16 23 27 22 18 16 18 22 23 22 24 27 26 25 25 20 18 19 20 20 16 15 13 10 9 6 4 3 1 3 2 3 4 4 4 5 2 8 6 2 3 3 2 4 5 5 5 13 21 21 22 24 25 26 27 29 31 32 34 33
26 27 28 28 30 31 32 33 32 34 33 37 43 39 45 45 36 45 52 47 44 44 46 44 46 37 15 11 16 23 33 28 22 18 16 20 20 21 26 29 28 26 24 19 17 19 21 18 11 10 10 6 4 5 5 4 4 3 1 2 4 4 4 4 3 6 7 3 3 3 3 7 6 4 2 6 17 22 23 25 26 27 27 28 30 32 34 35
26 26 27 28 31 32 33 34 34 35 32 34 39 37 42 46 39 45 53 48 45 45 42 42 43 26 8 17 23 27 37 34 28 22 19 23 21 22 29 31 29 25 22 16 14 19 19 14 8 4 5 4 5 6 5 5 6 6 4 3 3 4 5 5 4 4 7 4 4 5 4 11 12 11 8 5 11 21 24 23 22 25 28 29 30 32 33 35
27 26 27 28 30 33 34 35 36 36 33 32 34 34 36 42 43 48 57 54 46 31 21 32 38 16 5 27 35 30 36 37 31 24 22 26 24 26 32 31 29 26 19 11 10 17 16 9 5 4 5 7 8 8 7 6 8 8 6 4 4 5 5 5 4 4 6 5 5 7 7 11 13 13 9 5 9 18 20 19 20 23 26 28 30 32 33 34
28 28 28 29 30 34 35 36 37 37 35 32 32 29 25 29 28 28 48 56 53 37 23 40 50 26 9 26 36 30 32 35 32 28 25 27 29 31 31 28 25 20 13 9 8 14 15 7 6 8 8 10 10 9 7 6 9 9 5 4 5 4 4 4 3 5 1 4 5 7 8 11 12 11 7 4 8 13 17 20 24 26 26 28 30 32 33 34
30 29 29 30 30 33 36 37 38 37 37 34 34 32 29 34 22 13 37 42 45 42 31 46 57 30 7 18 35 35 30 26 28 31 25 27 33 29 25 23 17 9 8 10 8 9 11 8 7 7 7 9 8 7 6 5 7 8 5 4 4 3 4 5 2 4 2 3 5 3 5 11 13 12 8 5 6 11 19 22 26 29 28 28 30 32 34 34
32 31 31 32 32 34 37 38 39 38 38 36 38 37 40 49 37 24 33 26 31 38 29 46 53 25 9 18 32 35 29 19 18 30 28 30 35 24 19 17 10 5 7 9 7 5 6 6 6 6 6 8 6 5 7 6 5 5 4 3 3 2 3 5 3 2 1 2 4 1 5 10 13 11 8 9 11 15 22 25 28 31 29 28 31 33 35 34
34 33 32 33 33 35 38 40 40 40 41 40 42 45 46 53 48 33 23 14 23 29 29 47 46 26 20 23 30 36 31 21 20 30 34 36 35 27 22 15 8 7 7 8 8 7 6 6 8 8 8 9 5 5 7 6 6 4 4 4 3 2 1 3 3 2 2 1 2 2 3 7 9 8 6 13 19 20 23 25 27 29 29 31 33 34 35 35
36 35 34 34 34 35 39 40 40 43 46 44 46 52 52 53 52 39 15 8 8 9 23 46 39 28 29 28 35 37 32 29 29 35 40 37 33 28 23 17 12 9 8 10 10 9 4 6 13 11 7 10 8 7 8 7 7 6 5 5 4 3 4 4 3 3 3 2 1 2 3 5 7 7 7 9 13 17 22 22 23 26 29 31 32 33 35 34
38 38 36 36 35 36 40 39 43 48 48 48 51 51 52 49 45 44 21 5 4 5 17 34 27 23 30 31 35 33 25 22 26 38 43 38 33 25 16 14 13 8 9 10 9 7 5 7 16 11 5 10 9 8 8 7 6 6 6 7 7 6 5 4 2 2 2 4 2 1 2 5 5 6 8 5 2 9 16 15 21 27 27 29 32 34 35 35
40 41 39 38 37 37 38 41 49 51 47 53 55 48 50 47 37 39 24 1 3 8 12 25 22 22 30 31 35 32 18 10 19 39 42 34 35 29 16 9 6 6 10 9 5 4 3 6 13 11 8 10 8 8 8 8 6 5 5 8 9 7 5 4 2 2 1 4 3 1 4 6 6 5 7 4 3 8 9 8 18 27 26 28 33 35 37 37
42 43 41 39 39 39 40 45 51 50 50 55 55 48 49 50 40 30 15 3 6 11 15 22 20 24 30 32 40 28 11 12 19 34 41 34 33 30 19 8 4 5 7 6 3 3 3 7 8 9 10 8 7 7 7 8 8 4 5 8 8 7 7 7 6 5 4 3 4 3 3 3 5 6 6 3 4 8 8 8 14 23 28 30 34 38 39 40
43 44 43 42 42 43 47 49 47 52 59 53 51 52 47 51 49 24 5 5 7 10 12 15 16 27 31 33 37 16 12 27 19 24 42 37 29 24 14 11 10 9 8 8 6 3 5 8 9 10 9 7 7 6 7 10 7 6 4 6 5 5 5 6 6 5 2 1 5 3 2 3 5 6 5 3 3 7 9 9 11 20 28 30 32 35 36 38
47 46 47 47 45 47 54 53 49 58 62 50 48 52 47 53 46 16 2 5 5 7 13 16 16 26 28 25 21 5 15 29 12 19 39 30 22 16 9 14 15 12 9 7 5 2 2 9 14 12 8 7 7 5 9 11 6 5 5 7 5 4 3 3 5 4 1 0 6 5 2 3 5 6 4 2 2 6 8 8 10 18 25 26 27 29 30 33
51 50 50 50 49 54 58 57 58 60 57 51 48 48 50 50 30 8 5 5 3 5 14 18 16 24 28 19 9 2 9 15 13 23 29 20 18 13 11 18 16 11 5 2 5 4 1 5 11 8 6 8 7 3 5 10 8 6 6 6 5 4 4 3 2 3 2 4 6 5 2 2 4 6 4 4 4 6 7 7 9 16 22 20 17 17 18 21
52 52 53 55 58 60 59 61 65 58 51 51 48 49 49 32 11 7 8 5 5 6 12 15 15 22 26 18 9 7 5 9 18 25 18 11 11 11 14 14 9 8 4 4 6 2 3 5 5 3 5 8 6 3 1 3 6 8 4 4 3 1 2 3 3 2 3 6 4 3 1 3 5 5 3 6 6 5 6 7 9 13 19 18 11 9 11 14
52 56 57 60 64 64 65 69 67 55 51 52 53 52 33 10 4 6 7 9 7 7 11 15 16 19 21 17 12 10 7 9 17 20 16 11 9 10 12 9 8 8 7 10 6 1 2 2 1 0 4 7 8 4 2 2 3 5 4 5 4 1 1 2 2 1 4 5 2 1 2 3 6 6 6 9 9 9 11 13 14 15 20 23 18 16 18 20
55 57 57 62 67 69 74 73 67 58 54 57 56 39 14 6 8 4 6 8 6 9 14 18 21 22 23 19 12 10 7 9 16 17 15 12 8 8 7 5 9 7 5 9 7 5 3 4 2 2 2 6 9 7 3 1 3 6 5 6 6 4 4 7 4 1 4 3 2 1 1 3 4 5 9 12 13 15 15 17 20 21 25 28 27 26 26 25
56 54 53 63 70 77 79 71 66 62 61 62 46 20 9 11 6 6 9 6 5 14 17 18 22 23 20 15 13 13 7 7 15 16 13 11 8 8 6 6 9 5 5 7 5 7 8 3 5 5 2 7 8 6 7 7 5 5 4 5 5 4 5 6 3 3 4 3 2 2 2 3 3 3 8 12 15 17 17 19 21 23 25 26 26 26 25 24
51 51 57 66 74 82 80 71 66 64 67 59 28 8 12 9 3 8 10 5 7 13 15 17 20 19 14 10 11 10 3 6 14 13 12 13 11 12 11 10 11 6 7 8 3 6 11 5 2 0 2 8 8 6 8 9 5 4 3 5 5 6 5 2 3 5 4 1 3 3 3 4 3 6 8 8 12 16 18 20 19 21 22 21 21 21 20 20
50 57 64 70 75 79 77 73 68 67 67 45 15 10 11 3 3 9 8 8 13 16 18 17 15 15 11 7 10 8 1 6 14 9 9 12 11 13 12 8 9 8 9 9 3 4 9 3 3 3 3 3 6 6 5 6 5 2 3 5 6 4 7 4 2 1 3 2 4 2 4 5 3 7 8 5 7 11 12 14 16 19 20 18 21 22 19 18
58 64 68 71 74 74 75 74 69 70 63 33 12 11 6 2 6 10 10 15 19 22 23 16 12 14 11 6 9 10 5 7 12 9 8 9 8 13 13 8 11 13 10 8 3 2 6 3 3 2 3 1 2 4 3 2 4 5 5 7 3 2 3 4 2 1 1 4 5 0 4 5 2 4 6 5 7 11 10 8 11 15 15 16 20 21 20 19
60 63 64 69 73 74 76 74 71 69 49 21 13 10 5 5 9 10 12 16 18 20 18 15 14 15 15 12 12 15 14 12 13 11 10 8 7 14 18 12 13 18 14 10 5 2 5 4 3 1 3 1 1 4 2 3 2 4 4 4 4 3 2 2 2 3 2 4 4 3 4 4 5 5 4 4 7 9 9 7 7 10 12 14 17 19 20 19
60 50 42 61 76 74 75 74 72 61 31 12 13 8 4 8 10 15 22 19 16 17 15 13 14 14 16 18 17 19 19 16 18 14 11 11 7 12 21 14 10 18 20 13 7 3 4 4 1 2 1 1 2 2 6 3 2 2 3 2 2 2 4 3 3 4 3 3 3 3 5 4 6 6 5 7 9 8 9 7 5 10 13 15 16 17 16 16
55 30 20 58 78 72 77 74 59 39 16 9 12 6 7 10 10 20 31 26 16 14 14 15 17 16 17 17 15 16 13 13 18 13 9 11 5 6 18 16 9 15 16 10 6 4 3 3 3 1 1 2 2 3 7 8 4 3 3 4 2 1 2 2 1 3 4 3 3 2 5 6 5 5 9 10 10 11 11 7 6 11 12 11 12 13 13 13
44 15 16 61 75 73 77 56 28 16 9 9 9 6 11 13 11 17 27 27 17 7 6 12 18 16 16 18 15 13 10 9 14 11 4 9 7 3 14 19 14 14 12 8 6 6 2 3 6 4 1 4 3 3 5 7 6 6 5 6 6 4 3 3 4 1 2 3 4 3 6 9 5 5 8 10 10 11 10 6 7 11 9 8 10 12 12 12
29 6 24 62 71 76 65 25 8 10 8 10 10 8 12 14 14 17 21 22 14 3 1 7 13 11 11 16 16 16 13 9 14 12 3 8 10 3 11 22 23 21 14 7 5 4 3 5 5 2 3 5 3 2 2 3 2 3 3 4 6 5 5 6 6 3 1 2 2 3 5 9 4 6 9 9 8 7 6 6 9 10 8 8 12 11 11 12
16 13 39 62 70 77 50 11 9 11 4 10 14 13 14 13 15 18 19 18 11 4 4 6 10 10 10 12 13 16 14 8 11 9 2 4 6 2 14 28 29 21 12 7 6 5 4 5 4 1 2 3 4 3 3 2 2 2 3 2 5 5 4 6 6 4 3 4 2 2 5 8 3 2 5 6 6 6 6 9 11 11 9 10 11 11 10 10
19 30 48 60 71 70 35 8 10 8 6 12 12 13 12 9 15 20 18 17 12 9 9 9 13 13 11 13 14 18 17 10 8 6 3 3 2 6 22 35 31 19 10 9 11 8 4 3 4 4 2 2 3 3 3 2 2 3 2 2 3 4 6 4 2 3 2 7 7 5 8 8 5 3 3 2 5 7 10 12 13 12 10 10 9 9 10 9
21 26 37 55 70 57 23 9 13 8 10 14 11 14 14 9 16 24 23 19 14 13 10 8 13 12 9 13 14 15 13 7 6 6 3 3 1 4 21 36 32 18 10 14 18 12 5 3 4 6 7 8 6 5 6 5 3 1 2 4 5 7 8 5 3 2 6 7 9 9 7 4 3 3 5 4 5 7 11 12 12 12 10 9 9 8 8 8
15 10 16 35 51 42 19 15 18 12 12 15 10 11 15 12 14 23 25 17 9 10 7 3 10 11 9 13 13 13 13 6 7 6 3 6 3 1 16 32 29 17 14 22 27 16 4 2 6 8 11 12 7 4 5 10 8 7 8 10 9 9 10 6 4 5 8 4 6 10 5 0 4 3 3 6 6 6 8 7 7 9 8 9 9 8 7 7
14 8 9 14 20 24 15 11 14 12 15 18 10 9 16 16 12 16 19 12 7 11 6 4 11 13 14 19 15 14 14 7 9 12 7 7 3 3 11 19 17 20 20 23 28 16 4 3 10 10 11 8 5 5 8 12 13 13 12 12 10 9 10 9 11 11 6 4 6 6 6 5 8 6 7 9 6 5 6 6 5 5 6 6 7 8 8 7
9 11 16 12 6 10 13 9 9 12 17 18 10 12 20 19 16 15 14 8 9 12 7 5 15 17 20 24 17 14 16 8 9 14 11 9 7 6 9 5 7 21 21 17 20 12 3 7 10 8 8 3 4 7 10 11 10 9 13 14 12 12 13 16 21 13 7 7 11 6 9 12 9 6 9 9 6 5 4 6 6 8 9 7 7 8 9 9
7 10 11 10 6 10 15 13 10 12 17 14 8 13 19 20 21 16 11 10 10 13 12 12 20 22 23 24 17 15 17 13 13 16 14 16 14 12 12 5 5 14 14 10 11 6 3 6 6 8 7 2 3 7 9 10 7 6 12 15 15 17 19 22 22 14 9 14 12 3 5 11 6 7 10 9 8 6 6 10 11 11 12 12 11 11 11 11
12 13 9 7 5 14 18 15 13 12 12 11 9 12 16 20 23 16 12 16 17 16 17 19 25 27 25 26 22 20 26 27 25 22 20 20 17 13 12 8 5 7 6 7 6 2 3 5 4 7 6 1 2 4 5 8 8 7 10 13 16 20 20 20 17 10 8 14 10 4 10 11 5 9 12 12 9 7 11 16 15 13 13 15 16 16 15 14
21 26 25 14 5 11 16 14 15 13 9 10 11 13 16 20 24 18 11 13 17 20 22 24 25 23 21 26 26 26 30 29 22 21 22 22 18 12 7 5 8 9 5 5 5 2 3 3 3 6 5 4 2 5 6 5 4 2 9 15 20 19 15 14 12 10 11 14 11 9 13 12 7 7 9 9 8 10 16 19 17 15 15 17 19 19 19 19
26 28 32 21 8 10 15 11 13 14 10 10 11 13 17 19 21 19 11 6 8 14 20 22 20 15 16 25 28 27 26 21 18 23 27 26 21 15 14 17 20 17 9 5 3 3 5 5 3 5 7 4 2 5 8 8 6 4 12 15 17 14 11 10 10 12 15 12 10 12 14 11 5 6 6 6 8 13 19 21 20 19 17 18 20 20 21 21
Wind_Direction
239 233 228 226 225 228 224 217 215 218 223 220 215 212 209 206 202 202 205 203 203 203 201 200 201 201 201 199 198 198 199 200 201 204 207 205 201 196 185 176 170 169 177 189 191 178 171 188 202 204 202 191 197 221 253 332 222 241 118 121 190 182 194 187 174 192 189 203 196 185 181 176 181 186 183 173 174 168 166 185 193 196 213 219 219 189 175 178
237 234 227 223 222 224 224 220 215 217 224 219 214 212 210 206 203 202 203 204 202 202 202 202 201 200 198 195 196 196 197 200 205 211 209 201 196 193 186 181 177 173 177 184 186 186 184 197 191 190 190 175 158 198 222 297 288 181 116 139 220 197 203 199 185 199 217 267 224 196 185 185 190 179 175 169 171 168 168 198 198 201 212 206 199 175 175 180
235 233 228 223 222 224 227 227 221 219 223 221 212 211 213 210 207 203 201 203 202 200 200 199 198 196 194 195 195 194 197 200 210 216 209 200 196 195 192 188 190 185 181 184 184 192 204 217 188 176 176 170 157 167 173 347 298 230 121 185 240 218 235 250 236 230 241 263 249 207 192 190 193 180 178 178 173 183 190 194 190 199 202 189 178 173 177 181
234 231 228 225 222 224 229 231 230 227 228 226 214 209 214 214 212 206 202 203 201 199 198 196 195 193 194 195 194 194 193 198 220 217 204 198 196 193 194 194 199 197 191 190 183 194 204 199 177 159 148 145 149 167 146 36 353 283 133 207 261 220 249 270 265 291 286 253 231 207 191 189 188 181 181 169 155 220 219 201 196 198 191 180 176 177 181 183
234 232 227 228 224 223 228 229 232 234 233 231 217 210 212 214 214 208 202 202 201 199 198 196 194 193 193 194 194 191 183 181 234 217 201 196 193 187 189 194 202 201 198 196 186 193 199 189 180 167 145 130 144 155 190 27 11 328 228 278 303 321 252 287 309 321 313 259 209 188 187 187 179 183 187 175 171 219 218 208 204 201 193 189 184 181 184 186
234 233 227 228 225 221 227 229 230 234 236 234 220 212 212 211 211 209 202 199 200 199 199 197 194 193 193 193 192 186 182 167 233 207 199 196 190 184 184 188 195 198 198 199 190 190 189 178 179 179 167 136 160 156 165 359 20 46 230 297 323 335 287 288 302 308 312 240 193 185 196 182 168 191 197 190 199 211 217 214 208 205 203 202 192 185 186 189
234 233 230 227 225 220 224 231 230 230 236 238 229 217 212 209 212 211 203 198 200 199 198 198 195 193 191 189 187 186 192 198 83 186 194 196 193 185 184 186 187 191 196 195 190 191 190 182 177 176 164 141 182 170 162 92 66 105 216 305 329 332 311 299 296 296 301 254 207 193 197 182 176 196 198 204 211 212 225 217 207 205 202 201 195 191 193 194
234 233 231 227 226 221 220 230 233 232 235 238 237 231 216 210 212 209 201 199 200 199 197 197 195 193 190 186 180 182 198 201 192 194 189 191 196 191 190 192 191 193 193 195 196 192 191 192 188 175 165 192 191 170 168 161 77 92 171 309 326 325 321 315 298 290 297 256 206 192 198 195 197 205 205 217 214 210 231 216 204 202 198 199 198 198 198 198
234 233 231 228 227 224 218 225 234 234 234 237 239 241 228 212 209 207 202 201 200 198 197 196 196 192 191 189 180 181 201 195 183 192 183 184 191 197 198 197 196 195 193 195 198 193 192 198 196 189 187 197 189 170 165 174 63 65 346 324 326 320 323 321 295 283 292 236 190 186 199 202 208 241 246 232 218 212 225 211 202 201 200 200 201 204 203 202
233 233 232 228 226 227 220 218 230 234 233 236 235 239 238 217 208 207 205 203 202 199 196 196 197 191 189 189 181 183 202 190 169 155 167 176 185 194 201 200 197 193 192 193 196 197 197 202 200 195 195 182 176 182 169 164 167 35 355 335 320 319 323 316 290 283 274 217 192 184 160 185 194 195 251 240 218 212 216 206 202 204 206 205 204 207 207 208
233 234 233 228 226 227 222 216 223 231 231 233 232 233 237 220 207 207 207 206 204 201 198 197 195 190 189 188 182 186 196 188 175 161 160 170 184 192 198 199 196 191 191 192 195 201 202 209 202 191 194 181 163 175 203 182 163 33 8 344 319 333 327 298 284 285 255 181 200 180 133 182 142 205 242 236 210 211 214 207 204 206 210 209 209 210 211 214
234 235 235 229 226 226 224 218 217 227 232 232 232 231 234 224 206 206 210 206 203 202 199 197 195 192 190 189 191 195 191 188 185 184 181 166 173 191 197 199 199 196 194 194 194 200 204 210 202 192 190 168 144 136 223 197 164 29 31 8 322 344 330 282 260 272 260 212 184 149 131 289 265 231 235 227 206 209 213 210 207 208 212 212 211 213 214 217
234 233 236 232 228 228 226 219 215 223 231 233 233 230 233 232 211 205 208 204 202 203 201 200 196 190 187 189 198 199 190 188 191 196 196 180 159 182 197 199 202 202 202 203 198 195 201 210 209 200 181 153 140 125 187 178 145 25 49 67 334 347 322 279 223 248 245 207 169 146 205 271 247 234 226 216 210 206 207 209 208 209 212 213 213 215 217 218
235 234 237 233 229 230 228 223 216 218 228 233 233 232 231 231 217 206 204 202 201 201 201 201 195 187 186 189 199 200 192 187 193 200 202 201 188 177 189 195 197 201 203 207 202 195 197 204 204 193 171 151 150 132 130 142 117 48 65 77 7 326 286 291 175 201 196 204 184 144 211 257 250 247 233 223 219 208 205 207 209 211 212 214 215 217 220 221
236 236 237 236 230 228 230 226 218 215 223 231 234 235 230 228 222 209 203 201 200 201 200 199 193 186 188 195 199 198 195 191 190 197 204 207 204 186 183 189 192 196 199 202 200 197 193 193 189 173 152 148 148 128 104 108 97 163 167 173 218 208 270 302 230 192 189 202 186 142 205 259 267 271 243 225 220 211 209 209 211 212 213 216 218 220 223 225
237 238 238 239 232 228 230 227 221 216 219 230 234 238 232 227 226 214 206 203 200 199 197 195 190 185 188 199 198 198 198 196 189 189 197 205 211 197 182 185 191 193 196 198 197 196 188 183 180 164 148 145 146 121 103 120 177 217 186 175 200 208 263 305 268 211 203 146 197 179 209 259 270 280 251 223 215 210 211 213 214 214 216 219 220 222 225 227
239 240 240 241 236 231 228 226 225 218 218 228 230 239 233 222 227 219 207 204 201 197 196 192 184 184 196 193 187 196 198 197 191 186 185 192 206 199 182 180 186 190 189 190 192 190 185 178 173 166 156 152 156 136 136 175 198 202 175 176 204 210 229 271 285 225 196 159 220 208 220 245 252 272 298 230 212 208 211 218 218 217 219 221 222 224 226 229
241 243 243 242 238 234 230 226 226 220 219 226 228 237 230 217 226 218 199 196 192 189 192 187 180 182 203 193 190 195 197 197 191 188 184 182 194 195 181 176 179 180 173 171 180 178 180 181 168 158 165 166 170 165 173 186 175 171 174 181 204 216 220 242 270 211 170 173 221 187 226 255 262 271 270 256 216 210 216 222 225 225 223 223 224 226 228 230
242 245 245 243 239 235 233 226 224 223 219 224 227 232 230 221 224 207 186 182 180 178 184 176 177 182 190 192 194 195 196 196 190 188 188 179 183 187 177 173 174 169 156 150 175 175 167 166 166 172 181 180 182 186 186 164 161 172 172 172 195 215 232 240 256 239 173 172 221 195 215 245 253 263 255 234 218 215 223 231 234 234 230 227 228 229 231 233
244 245 244 244 241 235 234 226 223 224 218 222 220 217 218 216 226 200 172 175 180 181 178 174 179 185 183 189 191 189 186 188 189 186 186 181 176 174 169 166 165 161 155 150 178 182 167 163 193 193 186 182 183 184 179 158 165 177 169 184 209 214 254 263 277 297 221 174 232 213 219 245 249 261 257 211 217 217 222 231 236 237 234 231 230 231 234 236
246 247 244 245 243 236 235 227 222 223 219 221 213 204 200 199 223 199 162 172 183 183 180 178 181 182 183 188 185 180 165 167 184 180 179 180 172 166 163 160 153 154 168 150 146 171 174 187 200 189 178 172 173 167 171 175 172 180 172 181 219 215 248 260 252 309 324 189 257 234 221 257 256 260 262 213 210 223 221 224 232 235 235 234 234 235 238 241
248 249 245 245 245 238 236 228 221 220 219 221 212 205 207 205 214 200 170 171 181 182 182 177 179 181 180 184 184 176 154 139 166 172 172 173 170 167 162 160 154 147 155 144 129 145 184 211 202 184 161 144 149 153 170 198 194 187 172 161 224 233 267 284 260 294 347 202 265 227 200 255 262 257 251 217 219 237 235 231 233 235 235 235 236 238 241 243
250 250 247 247 246 238 236 228 219 219 219 220 213 209 213 212 214 206 178 162 173 181 183 176 177 180 167 168 177 173 162 154 163 172 174 171 170 171 161 156 154 142 149 161 159 160 187 223 200 184 158 141 159 173 167 200 215 201 172 167 218 213 211 277 294 325 356 284 250 167 205 263 270 268 259 229 227 239 245 243 241 239 238 240 240 241 244 245
251 250 250 248 245 236 233 227 220 221 220 219 216 214 215 215 220 222 198 113 145 181 184 178 175 172 163 161 172 175 170 169 172 174 175 171 167 167 164 157 149 148 170 172 163 165 197 218 181 167 159 160 176 191 177 190 213 213 186 176 198 194 195 228 302 323 308 319 128 96 342 295 267 267 270 242 228 239 246 246 245 243 240 243 245 245 246 247
250 252 252 247 243 232 227 226 220 220 219 219 219 215 215 217 221 222 213 86 108 168 181 179 171 163 164 165 174 174 164 165 176 174 173 174 166 156 156 162 157 161 170 155 143 167 224 207 167 153 169 174 178 202 195 182 200 225 206 185 198 202 207 231 330 6 336 304 268 121 302 283 288 270 255 262 254 245 247 245 247 246 242 242 244 246 247 248
253 257 254 246 238 224 222 224 219 217 217 219 218 211 213 216 208 199 197 290 176 167 167 174 169 165 168 167 167 166 156 160 181 173 170 175 171 156 148 161 160 157 156 140 132 182 218 176 159 160 175 174 182 202 202 178 179 235 219 188 198 197 192 199 160 126 216 267 281 88 189 252 310 283 250 277 308 265 258 256 252 251 248 244 244 246 247 248
259 260 254 243 229 219 221 221 215 212 213 217 215 208 209 209 203 191 182 254 206 164 158 167 167 170 172 168 163 162 165 159 163 171 172 174 173 164 158 162 136 146 151 134 165 215 146 146 163 168 167 177 190 197 204 177 168 234 212 172 179 182 198 200 173 189 224 259 313 18 140 229 285 262 265 317 302 284 278 269 259 253 250 248 248 249 250 251
261 260 253 240 224 217 220 219 212 209 212 215 209 207 208 203 206 208 194 219 180 140 150 156 157 163 165 169 169 161 148 153 151 177 176 171 171 168 167 171 152 151 163 155 183 232 131 161 182 167 168 195 192 184 181 164 178 237 179 133 152 167 191 190 169 198 227 356 292 310 125 209 263 269 304 346 268 276 274 262 256 250 248 249 251 253 254 255
260 256 248 237 226 218 219 217 211 209 212 209 203 206 206 199 203 214 250 211 156 132 149 146 148 152 149 163 178 167 145 155 152 172 172 169 171 173 171 169 149 140 167 168 177 215 150 184 184 168 174 196 190 190 173 163 187 220 139 92 75 77 75 119 157 173 96 284 244 241 199 220 262 273 290 333 257 256 264 261 256 255 254 252 253 255 256 258
258 254 244 234 228 221 219 216 211 211 208 202 203 203 191 186 192 208 222 203 133 152 148 145 153 149 147 153 173 206 156 151 130 148 164 171 169 160 144 152 140 128 162 168 172 203 28 161 175 172 185 184 177 171 170 175 165 134 110 84 68 53 55 62 77 102 118 260 246 231 216 201 265 269 236 224 226 214 231 257 264 262 261 260 262 264 266 269
256 251 242 232 227 219 212 209 209 208 201 197 198 187 175 171 183 210 198 152 124 154 140 142 151 149 153 154 155 186 171 132 136 146 160 172 160 139 132 147 141 120 146 179 193 253 48 121 170 190 178 157 135 94 52 198 150 119 102 111 116 5 41 32 7 71 201 248 259 236 167 163 236 261 237 243 257 226 214 240 255 260 265 270 273 277 293 301
254 246 238 228 222 214 206 205 204 200 196 194 184 174 168 164 204 206 169 148 160 171 144 142 147 150 158 156 156 176 158 139 153 155 161 169 168 163 157 170 167 145 176 189 178 121 115 178 257 174 186 162 138 125 31 359 143 139 124 132 153 191 151 215 242 204 222 245 271 217 148 207 237 249 254 264 271 254 231 232 244 257 269 276 276 277 290 298
249 241 232 220 213 206 203 203 198 192 193 189 178 171 173 192 192 160 138 167 178 161 150 148 153 156 159 159 161 169 155 154 162 160 164 163 162 179 182 186 169 151 172 173 151 149 185 297 285 148 232 194 163 157 165 185 175 162 149 160 174 157 174 210 220 266 250 254 276 235 215 259 267 258 241 239 248 252 250 250 256 263 270 276 281 284 287 287
243 234 219 209 204 200 200 198 192 189 187 183 178 175 190 194 180 127 151 187 164 152 154 151 152 154 158 161 161 160 148 162 168 160 157 157 162 185 201 209 189 139 108 146 155 167 176 240 210 172 178 177 172 177 163 142 155 185 165 151 168 167 177 202 203 211 235 257 277 254 220 206 206 250 236 234 256 270 271 266 265 268 270 276 281 283 283 278
231 216 200 195 195 196 196 192 189 187 182 178 179 192 191 184 138 145 162 176 151 148 146 142 143 148 157 157 156 165 156 165 170 161 159 169 176 183 186 195 189 147 134 163 179 177 180 208 256 69 123 154 165 181 148 127 156 211 147 137 196 193 153 139 186 179 173 235 260 225 226 213 206 269 267 256 273 279 271 267 267 267 269 273 275 277 279 274
206 195 188 186 188 191 190 186 186 184 178 176 187 199 185 161 149 163 159 165 160 144 135 136 143 150 156 152 157 174 247 163 163 161 173 180 183 187 188 189 181 167 162 160 134 172 176 198 331 21 50 129 154 166 152 146 173 169 141 191 219 172 121 112 210 137 101 224 255 202 245 290 313 285 290 300 291 281 270 268 266 264 266 268 269 272 275 274
190 182 178 180 183 185 184 183 182 179 177 181 200 188 161 107 173 161 155 167 161 147 142 145 160 160 154 151 163 167 155 151 162 168 176 179 191 192 190 190 181 182 181 157 133 200 153 104 335 64 89 65 129 121 92 72 136 139 182 205 188 117 108 114 180 321 88 231 268 228 231 278 281 263 308 334 285 273 267 263 268 270 269 265 268 273 273 271
182 172 168 174 179 179 179 180 179 176 177 187 190 175 139 153 170 157 158 163 157 155 154 155 164 164 160 162 170 170 161 157 170 176 173 184 214 194 186 191 181 180 184 161 143 203 144 108 329 353 132 176 69 113 126 3 61 142 177 177 138 156 196 126 171 193 179 232 275 309 268 252 208 223 296 298 250 253 261 274 292 283 275 275 281 284 278 270
168 160 160 170 174 175 176 176 174 174 183 193 178 175 143 150 159 159 161 160 157 163 165 161 163 166 169 170 168 170 171 170 173 175 177 187 214 194 185 189 179 178 181 166 151 181 143 121 233 275 199 150 53 144 185 202 17 67 112 140 127 153 175 168 168 168 175 221 255 313 298 255 216 207 209 229 236 240 249 259 270 270 279 290 293 294 290 276
155 150 151 164 169 172 171 170 170 175 193 188 166 159 144 147 156 165 166 165 164 171 172 167 167 167 170 169 163 168 175 172 173 178 183 181 189 206 192 186 167 171 172 151 138 159 132 118 159 230 324 167 172 208 189 172 160 145 144 170 185 98 124 159 160 134 144 181 191 285 282 257 235 203 191 210 230 239 241 231 235 266 286 298 298 302 299 283
153 142 142 161 166 167 165 166 172 177 183 175 164 156 154 149 149 164 171 171 169 175 177 171 174 172 166 163 160 167 171 165 175 183 182 179 180 218 199 183 156 153 155 135 147 169 157 133 146 148 173 184 217 251 191 170 169 167 172 186 179 145 120 169 225 229 112 174 179 184 266 263 236 193 199 208 216 233 247 236 241 270 290 306 310 310 302 294
156 121 148 161 165 164 162 165 179 165 171 171 154 144 148 143 147 162 172 175 175 166 97 170 176 169 165 166 163 166 167 162 180 184 169 186 190 203 189 171 153 154 157 141 153 164 105 102 116 142 195 201 242 276 167 179 146 140 188 192 167 163 146 159 211 238 153 242 161 125 271 270 226 182 202 216 218 234 255 247 249 269 291 310 316 314 308 306
151 116 151 164 166 163 164 177 172 163 174 154 137 138 148 146 154 161 167 173 176 161 143 163 168 165 171 169 157 163 165 158 178 180 96 166 188 184 166 157 150 156 158 136 150 166 136 108 98 49 313 315 325 0 28 33 78 148 233 171 152 183 158 147 185 179 171 221 167 127 263 266 259 208 213 235 254 260 255 245 250 268 293 312 314 316 317 311
136 128 149 165 168 165 167 187 168 156 145 144 136 140 142 142 157 159 165 176 177 172 169 168 172 175 172 163 161 169 169 161 175 176 111 139 176 160 158 155 155 163 168 166 169 171 165 128 121 121 81 5 341 332 295 240 173 194 202 133 148 133 97 105 147 105 212 217 171 180 245 254 275 334 11 315 292 277 258 244 245 261 289 309 309 315 321 314
133 135 147 162 169 171 174 173 161 144 141 142 132 139 133 132 167 168 168 173 176 174 172 170 167 160 151 154 159 168 166 148 158 165 127 112 91 154 159 161 165 168 163 160 157 151 143 153 153 141 155 185 192 206 215 183 154 201 143 151 172 144 142 170 140 134 234 214 174 200 239 271 299 354 15 324 290 272 259 246 242 255 277 300 305 310 316 310
140 148 145 158 170 178 182 172 163 149 147 145 130 144 143 138 168 175 170 170 176 165 147 120 138 128 135 151 150 166 170 131 127 145 115 134 138 279 170 168 169 162 147 148 149 143 107 156 180 178 187 194 183 171 146 122 140 202 190 175 182 180 178 166 128 193 212 178 194 218 203 70 286 286 301 275 256 252 268 268 257 260 277 295 298 298 298 293
154 162 155 153 168 177 182 181 172 159 154 153 142 150 154 147 154 172 173 176 174 154 117 94 147 146 158 160 154 170 170 125 127 147 139 143 112 34 164 168 165 153 145 148 153 144 80 184 194 197 200 193 150 154 152 144 172 196 185 180 189 188 176 173 201 211 164 134 228 210 154 204 251 248 245 254 251 252 277 294 295 296 308 301 286 284 286 286
154 151 161 157 144 177 177 168 171 166 158 157 154 154 156 155 154 163 172 172 163 157 128 133 170 171 169 165 160 167 164 139 150 159 153 153 134 119 154 177 179 160 149 154 165 153 119 195 195 187 195 185 113 155 164 163 177 175 173 187 191 186 186 200 217 211 143 200 232 176 170 218 228 226 241 244 228 224 266 300 314 321 322 314 296 287 289 291
118 122 143 149 139 161 154 143 156 167 160 153 147 157 158 157 160 165 166 154 163 175 165 166 178 176 172 170 163 162 167 169 175 176 169 161 154 150 157 175 207 176 157 158 177 171 163 193 187 167 175 144 124 169 171 162 153 156 183 193 190 195 202 209 220 213 191 231 241 162 228 249 219 212 243 243 226 234 284 294 295 302 307 306 297 285 282 281
139 139 126 106 130 154 147 149 161 161 161 155 149 163 164 161 166 169 167 165 171 179 178 180 182 177 174 173 170 175 184 185 184 180 168 159 160 165 167 168 172 169 156 158 173 192 172 177 156 141 149 141 152 162 159 158 159 172 199 205 201 205 210 215 222 215 214 244 255 274 278 273 214 206 235 249 258 279 287 280 279 286 290 288 282 278 277 274
145 153 153 132 108 157 151 155 164 157 168 175 161 161 167 171 171 167 170 184 180 178 184 185 180 175 173 177 183 191 190 187 181 169 161 158 159 159 158 156 148 141 131 149 152 88 89 139 117 120 155 220 196 126 121 106 98 191 235 226 211 207 209 215 216 200 206 229 235 247 260 254 216 197 219 244 260 265 266 266 269 272 270 270 272 275 278 278
143 147 155 145 117 155 154 151 164 164 170 176 164 162 170 176 173 164 164 198 199 192 192 181 167 164 176 187 194 194 184 173 157 154 158 156 149 139 132 141 152 154 145 137 139 112 118 130 126 139 168 234 337 118 127 91 66 270 250 221 203 203 205 211 224 218 215 217 213 227 243 242 204 165 184 221 228 234 248 255 262 267 264 262 266 271 277 283